AMOS-17

Last updated on Fri Oct 31 2025 00:02:49 GMT+0000 (Coordinated Universal Time)

1 44479U 19050A 25303.25938035 .00000119 00000+0 00000+0 0 9990 2 44479 0.0101 310.0960 0001812 257.4258 301.7076 1.00271488 22881
UTC large
Height (km)
Speed (km/s)
/
Latitude / Longitude
Inclination (degrees)
Orbital Period (minutes)
Azimuth
Elevation
Range (km)
Doppler Factor

Next 0 passes for location: London (51.5072 / 0.1276)

Sorry there are no passes over London.